FENGYUN 1C DEB, 31915

Orbit data source: Space-Track

FENGYUN 1C DEB, 31915 is space debris in SSO originally from a launch on Mon, 10 May 1999 UTC launched from the Taiyaun Space Center, China (TSC). Fengyun 1C debris stems from the Chinese weather satellite Fengyun-1C, which was intentionally destroyed by a Chinese anti-satellite missile in 2007. This event dramatically increased the amount of space debris, with thousands of trackable fragments posing hazards to satellites and human spaceflight. The Fengyun 1C debris cloud has become a focal point in discussions about space sustainability and the need for international regulations to prevent the creation of new debris.

Loading next visibility...
Identifier
31915, 1999-025CLS
Orbit
SSO
Country
Flag of CNCN / PRC
Related business
Manufacturer
Unknown
Mission
Spacecraft
Bus & Motor
Unknown
Mass
Unknown
Launch date (UTC)
1999-05-10 (27 years ago)
Launch vehicle
Unknown
Launch site
Taiyaun Space Center, China (TSC)
Object type
Payload
Rocket body
Debris
Shape & HBR
Unknown shape, 0.1 m
Radar Cross Section
Small (<0.1 m²)

Expand to show TLE details & history
Last TLE update: 1 day ago

TLE from 1 day ago
0 FENGYUN 1C DEB
1 31915U 99025CLS 26237.82283391  .00000883  00000-0  43969-3 0  9993
2 31915  98.6206 252.8470 0099188 254.1092 104.9134 14.16952321677330
Epoch: 2026-08-25T19:44Z
TLE epoch observation values (Epoch: 2026-08-25T19:44:52.849Z)
Latitude
-0.00002°
Longitude
-17.45786°
Altitude
857.67 km
Speed
7.414 km/s
True Right ascension
16h 51m 23s
True Declination
0° 00' 00"
Sunlit
Object was in daylight at epoch
Visualization orbit readout
Latitude
Unknown
Longitude
Unknown
Altitude
Unknown
Speed
Unknown
Apparent Right ascension
Unknown
Apparent Declination
Unknown
Sunlit
N/A
Visualization observer readout
Local Sidereal Time
12:16:32
Azimuth
Unknown
Elevation
Unknown
Doppler factor
Unknown
Orbital elements
Apogee altitude
904.36 km
Perigee altitude
761.312 km
Semi-major axis
7,210.973 km
Eccentricity
0.00992
Inclination
98.6206°
RAAN
252.847°
Arg. of periapsis
254.1092°
True anomaly
106.00816°
Mean anomaly
104.9134°
Eccentric anomaly
105.46114°
Mean motion
3.54448 °/min
Orbital period
101.57 mins
BSTAR
0.00043969
Loading maneuver chart data...
Computing Atmospheric mass density...
Loading historical data...
Loading historical data...
Loading historical data...
Loading historical data...
Loading historical data...
Loading historical data...
Loading historical data...

Documentation

Showing up to 5 results
|